FW9558 Weather Reports


Display with metric or nautical units.
time (UTC)temp
F
wind
direction
speed
MPH
gust
MPH
rain 1hr
in
rain 24hr
in
rain mn
in
humidity
%
barometer
mb
20260831080121 67 265 4.0 12.0 0.00 0.00 0.00 86 1020.3
20260831074545 66 286 2.0 9.0 0.00 0.00 0.00 88 1020.1
20260831073048 65 248 3.0 9.0 0.00 0.00 0.00 89 1020.2
20260831071546 64 0 2.0 7.0 0.00 0.00 0.00 92 1020.0
20260831070049 63 0 1.0 7.0 0.00 0.00 0.00 93 1019.8
20260831064544 62 0 1.0 5.0 0.00 0.00 0.00 94 1019.7
20260831063046 62 0 2.0 5.0 0.00 0.00 0.00 94 1019.6
20260831061550 61 0 0.0 7.0 0.00 0.00 0.00 94 1019.4
20260831060050 61 0 1.0 6.0 0.00 0.00 0.00 94 1019.3
20260831054544 61 0 0.0 4.0 0.00 0.00 0.00 94 1019.1
20260831053123 61 0 0.0 2.0 0.00 0.00 0.00 94 1019.0
20260831051544 61 0 0.0 0.0 0.00 0.00 0.00 94 1019.1
20260831050525 61 0 0.0 3.0 0.00 0.00 0.00 93 1018.9
20260831044636 62 0 0.0 3.0 0.00 0.00 0.00 93 1018.7
20260831043048 62 247 0.0 4.0 0.00 0.00 0.00 93 1018.8
20260831041544 62 0 0.0 3.0 0.00 0.00 0.00 93 1018.7
20260831040044 63 240 0.0 3.0 0.00 0.00 0.00 92 1018.7
20260831034545 63 248 1.0 4.0 0.00 0.00 0.00 92 1018.8
20260831033054 63 254 2.0 4.0 0.00 0.00 0.00 92 1018.7
20260831031544 63 0 0.0 5.0 0.00 0.00 0.00 92 1018.8
20260831030043 63 219 1.0 6.0 0.00 0.00 0.00 92 1018.7
20260831024548 64 250 2.0 7.0 0.00 0.00 0.00 92 1018.7
20260831023045 64 239 1.0 7.0 0.00 0.00 0.00 92 1018.7
20260831021543 64 239 0.0 4.0 0.00 0.00 0.00 92 1018.5
20260831020044 64 240 2.0 8.0 0.00 0.00 0.00 91 1018.4
20260831014551 65 273 4.0 10.0 0.00 0.00 0.00 91 1018.5
20260831013046 65 216 1.0 12.0 0.00 0.00 0.00 90 1018.4
20260831011552 64 252 3.0 9.0 0.00 0.00 0.00 90 1018.3
20260831010059 64 223 4.0 13.0 0.00 0.00 0.00 91 1018.4
20260831004544 64 223 3.0 14.0 0.00 0.01 0.00 92 1018.3
20260831003044 64 0 0.0 2.0 0.00 0.01 0.00 92 1018.2
20260831001548 63 0 0.0 4.0 0.00 0.01 0.00 92 1018.2
20260831000048 63 0 0.0 3.0 0.00 0.01 0.00 92 1018.4
20260830234633 63 0 0.0 2.0 0.00 0.01 0.00 92 1018.4
20260830234544 63 0 0.0 2.0 0.00 0.01 0.00 92 1018.4
20260830233044 63 0 0.0 5.0 0.00 0.01 0.00 92 1018.5
20260830231549 63 187 0.0 3.0 0.00 0.01 0.00 92 1018.5
20260830230046 62 0 0.0 1.0 0.00 0.01 0.00 92 1018.5
20260830224543 62 0 0.0 2.0 0.00 0.03 0.00 91 1018.6
20260830223043 63 0 0.0 3.0 0.00 0.03 0.00 90 1018.5
20260830221547 63 0 0.0 4.0 0.00 0.03 0.00 90 1018.6
20260830220046 63 0 0.0 4.0 0.00 0.03 0.00 90 1018.6
20260830214544 63 239 1.0 8.0 0.00 0.03 0.03 89 1018.3
20260830213058 64 0 0.0 2.0 0.00 0.03 0.03 88 1018.2
20260830211542 64 0 0.0 3.0 0.00 0.03 0.03 88 1018.3
20260830210046 64 0 0.0 7.0 0.00 0.03 0.03 87 1018.2
20260830204547 65 236 0.0 4.0 0.00 0.03 0.03 86 1018.1
20260830203046 65 254 0.0 4.0 0.00 0.03 0.03 86 1018.0
20260830201543 65 215 2.0 6.0 0.00 0.03 0.03 85 1017.9
20260830200043 66 238 1.0 10.0 0.00 0.03 0.03 84 1017.9
20260830194547 66 232 1.0 7.0 0.00 0.03 0.03 83 1017.7
20260830193044 67 235 3.0 9.0 0.00 0.03 0.03 82 1017.4
20260830191551 67 238 4.0 9.0 0.00 0.03 0.03 81 1017.2
20260830190044 67 240 4.0 9.0 0.00 0.03 0.03 81 1017.2
20260830184549 68 269 5.0 11.0 0.00 0.06 0.03 80 1016.9
20260830183044 68 236 5.0 13.0 0.00 0.06 0.03 79 1016.7
20260830181544 68 283 3.0 10.0 0.00 0.06 0.03 80 1016.6
20260830180050 69 224 5.0 14.0 0.00 0.06 0.03 80 1016.5
20260830174544 69 242 3.0 14.0 0.00 0.07 0.03 81 1016.6
20260830173043 70 258 4.0 14.0 0.00 0.07 0.03 81 1016.5
20260830171543 69 262 5.0 14.0 0.00 0.07 0.03 81 1016.5
20260830170047 70 221 4.0 12.0 0.00 0.07 0.03 80 1016.5
20260830164545 70 209 4.0 16.0 0.00 0.08 0.03 79 1016.4
20260830163046 70 213 6.0 14.0 0.00 0.08 0.03 79 1016.5
20260830161558 69 0 1.0 6.0 0.00 0.08 0.03 85 1016.4
20260830160044 69 0 0.0 11.0 0.00 0.08 0.03 85 1016.4
20260830154548 69 0 1.0 10.0 0.00 0.08 0.03 84 1016.3
20260830153049 70 223 2.0 11.0 0.00 0.08 0.03 81 1016.1
20260830151543 70 165 2.0 13.0 0.00 0.08 0.03 82 1016.2
20260830150109 69 0 0.0 7.0 0.00 0.08 0.03 85 1016.3
20260830144550 69 0 1.0 10.0 0.00 0.11 0.03 86 1016.6
20260830143046 70 279 0.0 11.0 0.00 0.11 0.03 83 1016.6
20260830141542 71 0 0.0 8.0 0.00 0.11 0.03 82 1016.5
20260830140050 71 265 3.0 8.0 0.00 0.11 0.03 80 1016.5
20260830134546 71 265 1.0 9.0 0.00 0.17 0.03 80 1016.7
20260830133046 70 226 3.0 9.0 0.00 0.17 0.03 77 1016.7
20260830131543 70 251 3.0 8.0 0.00 0.17 0.03 80 1016.8
20260830130046 69 211 2.0 10.0 0.00 0.17 0.03 83 1016.9
20260830124544 69 234 2.0 8.0 0.00 0.18 0.03 82 1017.0
20260830123043 70 209 1.0 5.0 0.00 0.18 0.03 81 1016.8
20260830121554 71 228 3.0 9.0 0.00 0.18 0.02 75 1016.7
20260830120048 72 284 4.0 10.0 0.00 0.18 0.02 72 1016.7
20260830114556 72 263 5.0 14.0 0.00 0.24 0.02 73 1016.5
20260830113042 72 215 5.0 13.0 0.00 0.24 0.02 74 1016.5
20260830111548 71 221 6.0 14.0 0.00 0.24 0.02 74 1016.6
20260830110046 71 246 3.0 13.0 0.00 0.24 0.02 79 1016.6
20260830104543 71 266 6.0 15.0 0.00 0.24 0.02 81 1016.8
20260830103053 70 198 4.0 12.0 0.00 0.24 0.02 83 1016.6
20260830101548 70 0 1.0 9.0 0.00 0.24 0.02 84 1016.7
20260830100047 70 254 2.0 10.0 0.00 0.24 0.02 83 1016.9
20260830094544 70 273 2.0 10.0 0.00 0.24 0.02 84 1016.9
20260830093055 69 257 3.0 8.0 0.00 0.24 0.02 87 1016.9
20260830091545 69 233 3.0 11.0 0.00 0.24 0.02 89 1017.0
20260830090057 68 0 2.0 4.0 0.00 0.24 0.02 93 1017.0
20260830084546 68 0 0.0 4.0 0.00 0.24 0.02 95 1016.9
20260830083049 67 336 1.0 6.0 0.00 0.24 0.02 96 1016.7
20260830081545 66 152 0.0 5.0 0.00 0.24 0.02 96 1016.9